Regional Weather Roundup
Issued by NWS State College, PA

Home | Current Version | Previous Version | Text Only | Print | Product List | Glossary Off
Versions: 1 2 3 4 5 6 7 8 9 10 11 12 13 14 15 16 17 18 19 20 21 22 23 24 25 26 27 28 29 30 31 32 33 34 35 36 37 38 39 40 41 42 43 44 45 46 47 48 49 50

000
ASUS41 KCTP 281210
RWRCTP

REGIONAL WEATHER ROUNDUP
NATIONAL WEATHER SERVICE STATE COLLEGE PA
700 AM EST FRI NOV 28 2014

Note: "fair" indicates few or no clouds below 12,000 feet with no
significant weather and/or obstructions to visibility.

* = STATION THAT DOES NOT REPORT PRECIPITATION /E.G. RAIN...SNOW...ETC/
    THUNDER OR FOG.

PAZ002>004-007>009-013>016-020>023-029>032-281300-
WESTERN PENNSYLVANIA

CITY           SKY/WX    TMP DP  RH WIND       PRES   REMARKS
ERIE           CLOUDY    25  13  60 NW12G22   30.29R WCI  14
MEADVILLE      LGT SNOW  22  19  89 NW5       30.24S FOG
FRANKLIN*      MOCLDY    21  16  79 W12G20    30.25R WCI   9
NEW CASTLE       N/A     21  13  71 W8        30.32R WCI  11
BEAVER COUNTY  NOT AVBL
BUTLER*        CLOUDY    25  16  68 W12       30.29R WCI  14
PITTSBURGH INT FLURRIES  25  15  66 NW21      30.29R WCI  11
PITTSBURGH     CLOUDY    26  18  71 VRB7      30.28R
INDIANA*       MOCLDY    25  21  86 NW7       30.28R
LATROBE        FLURRIES  27  23  86 W7        30.30R
WASHINGTON CO* MOCLDY    27  18  69 NW5       30.31R
$$

PAZ004>006-010>012-017>019-024>028-033>037-041-042-045-046-049>053-281300-
CENTRAL PENNSYLVANIA

CITY           SKY/WX    TMP DP  RH WIND       PRES   REMARKS
BRADFORD       CLOUDY    20  14  77 W9        30.15R WCI   9
DUBOIS         CLOUDY    23  18  81 W9        30.18R WCI  13
CLEARFIELD     PTCLDY    23  16  74 W8        30.20R WCI  14
JOHNSTOWN      FLURRIES  21  16  81 NW21G28   30.17R WCI   5
ALTOONA        CLOUDY    25  17  72 NW10      30.22R WCI  15
STATE COLLEGE  PTCLDY    25  18  74 W12       30.22R WCI  14
WILLIAMSPORT   MOCLDY    29  18  63 W6        30.21R
SELINSGROVE    PTCLDY    30  18  60 NW6       30.22R
FT INDIANTOWN  CLEAR     31  20  63 W8        30.21R
CAPITAL CITY   MOCLDY    30  20  66 W6        30.24R
HARRISBURG     PTCLDY    31  21  66 NW15      30.22R
YORK           PTCLDY    29  23  78 W8        30.22R
$$

PAZ038>040-043-044-047-048-054-055-060>062-067>071-281300-
EASTERN PENNSYLVANIA

CITY           SKY/WX    TMP DP  RH WIND       PRES   REMARKS
SCRANTON       PTCLDY    27  22  81 N9        30.14R
MOUNT POCONO   LGT SNOW  24  20  84 NW9       30.05R FOG     WCI  14
ALLENTOWN      CLOUDY    28  22  78 SW5       30.15R
QUAKERTOWN*    PTSUNNY   28  23  80 CALM      30.15R
READING        CLEAR     32  21  64 NW16      30.18R
LANCASTER      CLEAR     29  20  69 NW10      30.20R
COATESVILLE    SUNNY     28  23  80 NW10      30.17R
POTTSTOWN      CLEAR     28  21  75 W3        30.18R
BLUE BELL      CLEAR     32  25  74 CALM      30.16R
DOYLESTOWN     CLEAR     27  23  85 W5        30.15R
WILLOW GROVE   NOT AVBL
NORTH PHILA    CLEAR     32  22  66 NW9       30.18R
PHILADELPHIA   PTCLDY    32  22  66 W10       30.19R
$$



USA.gov is the U.S. government's official web portal to all federal, state and local government web resources and services.